Location: Aranbee
(34.0885°N, 118.2342°W)
Time: 13:35:37
(UTC+00:00)

Tiros 1 - Pass Details

Date: 28 November 2020
Orbit: 630 x 663 km, 48.4° (Epoch: 21 January)

Event Time Altitude Azimuth Distance (km) Brightness Sun altitude
Rises 21:08:32 0° 194° (SSW) 2,974 11.7 30.7°
Reaches altitude 10° 21:11:23 10° 177° (S) 2,068 10.9 30.4°
Maximum altitude 21:14:53 20° 130° (SE) 1,501 9.4 30.1°
Drops below altitude 10° 21:18:23 10° 83° (E) 2,076 9.5 29.8°
Sets 21:21:14 0° 67° (ENE) 2,989 10.2 29.5°
